BCI78B EGJJ-EGTE

Flight info

Callsign BCI78B
Flight time 0h 43m
Altitude 18000
Route SKERY L22 EMWIP P16 FIMCA N22 BHD N864 DAWLY
Aircraft AT76/M-SDFGIRY/S

Departure

Time 2026-04-26 19:06
Airport Jersey Airport (EGJJ)

Arrival

Time 2026-04-26 19:49
Airport Exeter International Airport (EGTE)
Time Latitude Longitude Altitude Speed Heading
2026-04-26 18:52 49.20541 -2.19860 280 ft 0 kts 174°
2026-04-26 18:59 49.20532 -2.19872 280 ft 5 kts 229°
2026-04-26 19:00 49.20516 -2.19942 280 ft 8 kts 263°
2026-04-26 19:00 49.20528 -2.20038 280 ft 10 kts 288°
2026-04-26 19:00 49.20549 -2.20138 280 ft 10 kts 288°
2026-04-26 19:00 49.20571 -2.20238 280 ft 10 kts 286°
2026-04-26 19:01 49.20589 -2.20339 280 ft 10 kts 285°
2026-04-26 19:01 49.20607 -2.20434 280 ft 5 kts 285°
2026-04-26 19:01 49.20616 -2.20487 280 ft 6 kts 284°
2026-04-26 19:01 49.20618 -2.20498 280 ft 0 kts 284°
2026-04-26 19:04 49.20623 -2.20532 280 ft 7 kts 279°
2026-04-26 19:04 49.20627 -2.20630 281 ft 8 kts 274°
2026-04-26 19:05 49.20704 -2.20652 280 ft 6 kts 80°
2026-04-26 19:05 49.20737 -2.20279 279 ft 72 kts 83°
2026-04-26 19:05 49.20826 -2.19202 391 ft 122 kts 81°
2026-04-26 19:06 49.20975 -2.17957 1108 ft 119 kts 76°
2026-04-26 19:06 49.21169 -2.16614 1593 ft 141 kts 78°
2026-04-26 19:06 49.21426 -2.14918 1589 ft 187 kts 75°
2026-04-26 19:06 49.21809 -2.12863 1723 ft 212 kts 73°
2026-04-26 19:07 49.22123 -2.10633 2010 ft 210 kts 90°
2026-04-26 19:07 49.22112 -2.08540 2495 ft 190 kts 90°
2026-04-26 19:07 49.22123 -2.06587 2993 ft 177 kts 90°
2026-04-26 19:07 49.22301 -2.04804 3495 ft 168 kts 59°
2026-04-26 19:08 49.23246 -2.03844 4000 ft 167 kts
2026-04-26 19:08 49.24307 -2.04320 4520 ft 157 kts 326°
2026-04-26 19:08 49.25230 -2.05200 5023 ft 156 kts 327°
2026-04-26 19:08 49.26146 -2.06097 5518 ft 156 kts 325°
2026-04-26 19:09 49.26998 -2.07107 6033 ft 154 kts 304°
2026-04-26 19:09 49.27360 -2.08605 6460 ft 152 kts 290°
2026-04-26 19:09 49.27800 -2.10133 6811 ft 162 kts 297°
2026-04-26 19:09 49.28351 -2.11696 7151 ft 171 kts 298°
2026-04-26 19:10 49.28963 -2.13286 7493 ft 180 kts 302°
2026-04-26 19:10 49.29696 -2.14897 7848 ft 188 kts 306°
2026-04-26 19:10 49.30545 -2.16467 8196 ft 194 kts 311°
2026-04-26 19:10 49.31488 -2.17979 8544 ft 197 kts 314°
2026-04-26 19:11 49.32491 -2.19425 8899 ft 199 kts 315°
2026-04-26 19:11 49.33520 -2.20866 9261 ft 200 kts 315°
2026-04-26 19:11 49.34545 -2.22318 9625 ft 201 kts 314°
2026-04-26 19:11 49.35573 -2.23781 9995 ft 202 kts 315°
2026-04-26 19:12 49.36604 -2.25245 10338 ft 202 kts 314°
2026-04-26 19:12 49.37642 -2.26708 10674 ft 203 kts 315°
2026-04-26 19:12 49.38681 -2.28172 11012 ft 203 kts 315°
2026-04-26 19:12 49.39713 -2.29633 11352 ft 203 kts 315°
2026-04-26 19:13 49.40752 -2.31106 11695 ft 204 kts 314°
2026-04-26 19:13 49.41799 -2.32581 12047 ft 204 kts 315°
2026-04-26 19:13 49.42840 -2.34059 12402 ft 204 kts 314°
2026-04-26 19:13 49.43880 -2.35541 12753 ft 204 kts 314°
2026-04-26 19:14 49.44915 -2.37020 13121 ft 203 kts 314°
2026-04-26 19:14 49.45947 -2.38507 13492 ft 203 kts 314°
2026-04-26 19:14 49.46971 -2.39992 13864 ft 202 kts 313°
2026-04-26 19:14 49.47645 -2.40975 14099 ft 202 kts 313°
2026-04-26 19:15 49.48994 -2.42935 14536 ft 201 kts 314°
2026-04-26 19:15 49.50011 -2.44400 14878 ft 199 kts 314°
2026-04-26 19:15 49.51020 -2.45848 15218 ft 198 kts 314°
2026-04-26 19:15 49.52024 -2.47288 15563 ft 196 kts 313°
2026-04-26 19:16 49.53014 -2.48708 15912 ft 194 kts 313°
2026-04-26 19:16 49.53992 -2.50114 16262 ft 191 kts 313°
2026-04-26 19:16 49.54960 -2.51514 16619 ft 191 kts 312°
2026-04-26 19:16 49.55924 -2.52914 16980 ft 189 kts 313°
2026-04-26 19:17 49.56883 -2.54279 17341 ft 186 kts 313°
2026-04-26 19:17 49.57822 -2.55625 17681 ft 184 kts 312°
2026-04-26 19:17 49.58762 -2.56983 17877 ft 190 kts 312°
2026-04-26 19:17 49.59753 -2.58418 17946 ft 201 kts 313°
2026-04-26 19:18 49.60789 -2.59917 17976 ft 212 kts 313°
2026-04-26 19:18 49.61891 -2.61514 17990 ft 222 kts 313°
2026-04-26 19:18 49.63039 -2.63180 17996 ft 230 kts 313°
2026-04-26 19:18 49.64222 -2.64899 17999 ft 237 kts 313°
2026-04-26 19:19 49.65440 -2.66667 18003 ft 242 kts 313°
2026-04-26 19:19 49.66679 -2.68466 18002 ft 246 kts 313°
2026-04-26 19:19 49.67968 -2.70221 18009 ft 250 kts 320°
2026-04-26 19:19 49.69431 -2.71739 18007 ft 255 kts 324°
2026-04-26 19:20 49.70935 -2.73216 18008 ft 257 kts 324°
2026-04-26 19:20 49.71934 -2.74221 18019 ft 258 kts 322°
2026-04-26 19:20 49.73899 -2.76315 18014 ft 259 kts 321°
2026-04-26 19:20 49.75370 -2.77927 18014 ft 260 kts 321°
2026-04-26 19:21 49.76871 -2.79560 18019 ft 261 kts 321°
2026-04-26 19:21 49.78353 -2.81180 18019 ft 261 kts 321°
2026-04-26 19:21 49.79836 -2.82797 18019 ft 261 kts 321°
2026-04-26 19:21 49.81324 -2.84422 18019 ft 262 kts 321°
2026-04-26 19:22 49.82791 -2.86024 18019 ft 262 kts 321°
2026-04-26 19:22 49.84285 -2.87655 18021 ft 262 kts 321°
2026-04-26 19:22 49.85775 -2.89286 18027 ft 262 kts 321°
2026-04-26 19:22 49.87265 -2.90916 18021 ft 262 kts 321°
2026-04-26 19:23 49.88757 -2.92552 18024 ft 262 kts 321°
2026-04-26 19:23 49.90250 -2.94191 18024 ft 262 kts 321°
2026-04-26 19:23 49.91744 -2.95828 18025 ft 262 kts 321°
2026-04-26 19:23 49.93216 -2.97446 18036 ft 262 kts 321°
2026-04-26 19:24 49.94708 -2.99087 18030 ft 263 kts 321°
2026-04-26 19:24 49.96199 -3.00727 18030 ft 263 kts 321°
2026-04-26 19:24 49.99186 -3.04015 18031 ft 263 kts 321°
2026-04-26 19:25 50.00678 -3.05659 18028 ft 263 kts 321°
2026-04-26 19:25 50.01663 -3.06748 18028 ft 263 kts 321°
2026-04-26 19:25 50.03662 -3.08951 18030 ft 263 kts 321°
2026-04-26 19:25 50.05151 -3.10601 18032 ft 263 kts 321°
2026-04-26 19:26 50.06647 -3.12253 18033 ft 263 kts 321°
2026-04-26 19:26 50.08140 -3.13908 18033 ft 263 kts 321°
2026-04-26 19:26 50.09628 -3.15554 18033 ft 263 kts 321°
2026-04-26 19:26 50.11104 -3.17191 18039 ft 263 kts 321°
2026-04-26 19:27 50.12597 -3.18847 18021 ft 264 kts 321°
2026-04-26 19:27 50.14110 -3.20526 17868 ft 269 kts 320°
2026-04-26 19:27 50.15652 -3.22246 17718 ft 273 kts 320°
2026-04-26 19:27 50.17210 -3.23979 17516 ft 278 kts 321°
2026-04-26 19:28 50.18786 -3.25729 17281 ft 283 kts 321°
2026-04-26 19:28 50.20401 -3.27530 17047 ft 286 kts 321°
2026-04-26 19:28 50.22030 -3.29344 16819 ft 289 kts 321°
2026-04-26 19:28 50.23673 -3.31178 16586 ft 291 kts 321°
2026-04-26 19:29 50.25329 -3.33026 16355 ft 292 kts 321°
2026-04-26 19:29 50.26987 -3.34876 16128 ft 294 kts 321°
2026-04-26 19:29 50.28650 -3.36741 15909 ft 294 kts 321°
2026-04-26 19:29 50.30314 -3.38603 15681 ft 295 kts 321°
2026-04-26 19:30 50.31987 -3.40478 15468 ft 295 kts 321°
2026-04-26 19:30 50.33658 -3.42353 15236 ft 296 kts 321°
2026-04-26 19:30 50.35335 -3.44233 15012 ft 296 kts 321°
2026-04-26 19:30 50.36441 -3.45475 14875 ft 296 kts 321°
2026-04-26 19:31 50.38670 -3.47948 14593 ft 294 kts 325°
2026-04-26 19:31 50.40612 -3.48986 14375 ft 299 kts 349°
2026-04-26 19:31 50.42701 -3.49117 14164 ft 303 kts
2026-04-26 19:31 50.44812 -3.48747 13936 ft 306 kts
2026-04-26 19:32 50.46922 -3.48261 13702 ft 306 kts
2026-04-26 19:32 50.49027 -3.47792 13459 ft 306 kts
2026-04-26 19:32 50.51141 -3.47402 13221 ft 305 kts
2026-04-26 19:32 50.53260 -3.47063 12984 ft 304 kts
2026-04-26 19:33 50.55357 -3.46792 12746 ft 295 kts 357°
2026-04-26 19:33 50.57224 -3.47634 12507 ft 276 kts 327°
2026-04-26 19:33 50.58556 -3.49660 12288 ft 259 kts 306°
2026-04-26 19:33 50.59649 -3.51853 12061 ft 251 kts 305°
2026-04-26 19:34 50.60742 -3.53980 11719 ft 249 kts 309°
2026-04-26 19:34 50.61953 -3.55907 11367 ft 246 kts 316°
2026-04-26 19:34 50.63280 -3.57588 11015 ft 244 kts 322°
2026-04-26 19:34 50.64672 -3.59111 10671 ft 243 kts 324°
2026-04-26 19:35 50.66074 -3.60585 10333 ft 241 kts 324°
2026-04-26 19:35 50.67437 -3.62047 9983 ft 238 kts 324°
2026-04-26 19:35 50.68949 -3.62977 9609 ft 236 kts 355°
2026-04-26 19:35 50.70532 -3.62363 9240 ft 238 kts 31°
2026-04-26 19:36 50.71612 -3.60433 8877 ft 238 kts 66°
2026-04-26 19:36 50.71807 -3.59609 8756 ft 235 kts 72°
2026-04-26 19:36 50.73460 -3.56424 7954 ft 237 kts 20°
2026-04-26 19:36 50.75064 -3.56240 7501 ft 237 kts 345°
2026-04-26 19:37 50.76439 -3.57520 7269 ft 225 kts 314°
2026-04-26 19:37 50.77488 -3.59277 7157 ft 215 kts 311°
2026-04-26 19:37 50.78457 -3.61003 7105 ft 205 kts 310°
2026-04-26 19:37 50.79366 -3.62674 7075 ft 197 kts 309°
2026-04-26 19:38 50.80249 -3.64323 6770 ft 195 kts 309°
2026-04-26 19:38 50.81108 -3.65940 6364 ft 189 kts 309°
2026-04-26 19:38 50.81940 -3.67528 5956 ft 186 kts 309°
2026-04-26 19:38 50.82754 -3.69107 5543 ft 184 kts 309°
2026-04-26 19:39 50.83542 -3.70675 5129 ft 179 kts 306°
2026-04-26 19:39 50.83865 -3.72510 4725 ft 178 kts 261°
2026-04-26 19:39 50.83235 -3.74120 4371 ft 177 kts 213°
2026-04-26 19:39 50.82125 -3.74812 4203 ft 170 kts 197°
2026-04-26 19:40 50.81007 -3.75383 4127 ft 167 kts 197°
2026-04-26 19:40 50.79914 -3.75903 4088 ft 161 kts 196°
2026-04-26 19:40 50.78858 -3.76381 4066 ft 155 kts 195°
2026-04-26 19:40 50.77805 -3.76838 4060 ft 161 kts 194°
2026-04-26 19:41 50.76693 -3.77312 4068 ft 169 kts 194°
2026-04-26 19:41 50.75534 -3.77811 4065 ft 175 kts 195°
2026-04-26 19:41 50.74342 -3.78325 4054 ft 180 kts 195°
2026-04-26 19:41 50.73952 -3.78493 4061 ft 181 kts 195°
2026-04-26 19:42 50.71905 -3.79376 4056 ft 185 kts 195°
2026-04-26 19:42 50.70654 -3.79900 4054 ft 185 kts 191°
2026-04-26 19:42 50.69799 -3.79849 4058 ft 184 kts 160°
2026-04-26 19:42 50.68857 -3.78559 3992 ft 186 kts 118°
2026-04-26 19:43 50.68287 -3.76633 3642 ft 202 kts 113°
2026-04-26 19:43 50.67731 -3.74554 3299 ft 214 kts 111°
2026-04-26 19:43 50.67213 -3.72329 2959 ft 217 kts 101°
2026-04-26 19:43 50.67367 -3.70039 2833 ft 207 kts 73°
2026-04-26 19:44 50.67962 -3.68026 2714 ft 199 kts 64°
2026-04-26 19:44 50.68465 -3.66073 2576 ft 179 kts 70°
2026-04-26 19:44 50.68891 -3.64331 2403 ft 168 kts 66°
2026-04-26 19:44 50.69440 -3.62773 2228 ft 161 kts 59°
2026-04-26 19:45 50.70042 -3.61298 1921 ft 158 kts 59°
2026-04-26 19:45 50.70550 -3.59792 1806 ft 155 kts 68°
2026-04-26 19:45 50.70852 -3.58231 1831 ft 142 kts 76°
2026-04-26 19:45 50.71094 -3.56789 1856 ft 132 kts 76°
2026-04-26 19:46 50.71341 -3.55399 1765 ft 131 kts 75°
2026-04-26 19:46 50.71573 -3.53997 1601 ft 134 kts 77°
2026-04-26 19:46 50.71807 -3.52502 1382 ft 138 kts 78°
2026-04-26 19:46 50.72002 -3.51199 1297 ft 114 kts 78°
2026-04-26 19:47 50.72158 -3.50008 1036 ft 106 kts 80°
2026-04-26 19:47 50.72262 -3.49240 940 ft 111 kts 78°
2026-04-26 19:47 50.72493 -3.47656 793 ft 112 kts 78°
2026-04-26 19:47 50.72667 -3.46458 640 ft 111 kts 79°
2026-04-26 19:48 50.72830 -3.45288 472 ft 106 kts 80°
2026-04-26 19:48 50.72997 -3.44159 325 ft 104 kts 78°
2026-04-26 19:48 50.73170 -3.43053 167 ft 103 kts 78°
2026-04-26 19:48 50.73332 -3.42030 91 ft 85 kts 78°
2026-04-26 19:49 50.73425 -3.41397 84 ft 21 kts 76°
2026-04-26 19:49 50.73450 -3.41240 88 ft 13 kts 76°